Flag for U.S.A. Weather past 2 weeks in Lafayette, Louisiana, U.S.A.

Now
74 °F

Partly sunny.


Feels Like: 74 °F
Forecast: 68 / 76 °F
Wind: 8 mph from Southeast

Location: Lafayette Regional Airport

Current Time: Apr 18, 2015 at 11:55:35 AM

Latest Report: Apr 18, 2015 at 10:53 AM


Visibility: 10 mi

Pressure: 29.89 "Hg

Humidity: 82%

Dew point: 68 °F

Location of LafayetteLocation

Historic Weather in Lafayette — Graph

°F

Lafayette temperature yesterday

Maximum temperature yesterday: 83 °F (at 3:53 PM)
Minimum temperature yesterday: 67 °F (at 2:53 AM)
Average temperature yesterday: 74 °F

Past Weeks' High & Low Weather Summary

 TemperatureHumidityPressure
High85 °F (Apr 8, 1:53 PM)100% (Apr 5, 5:01 PM)30.27 "Hg (Apr 5, 5:01 PM)
Low55 °F (Apr 5, 1:53 AM)41% (Apr 4, 3:53 PM)29.87 "Hg (Apr 18, 5:53 AM)
Average71 °F84%30.02 "Hg
* Reported Apr 3 10:00 AM — Apr 18 9:53 AM, Lafayette, Weather by CustomWeather, © 2015

Note: Actual official high and low records may vary slightly from our data, if they occured in-between our weather recording intervals... More about our weather records

Advertising

Lafayette weather history for previous 24 hours

 ConditionsComfort  
Time TempWeatherWind HumidityBarometerVisibility
9:53 AM
Sat, Apr 18
71 °FPassing clouds.5 mph90%29.89 "Hg10 mi
8:53 AM69 °FLight rain. Scattered clouds.5 mph93%29.88 "Hg10 mi
7:53 AM70 °FLight rain. Scattered clouds.8 mph90%29.89 "Hg10 mi
6:53 AM69 °FPassing clouds.3 mph93%29.88 "Hg10 mi
5:53 AM69 °FOvercast.6 mph93%29.87 "Hg10 mi
4:53 AM69 °FRain. Fog.5 mph93%29.89 "Hg5 mi
4:01 AM71 °FLow clouds.6 mph93%29.90 "Hg10 mi
2:53 AM72 °FLight rain. Overcast.No wind93%29.90 "Hg9 mi
1:53 AM71 °FThundershowers. Fog.5 mph96%29.93 "Hg6 mi
12:53 AM73 °FLight rain. Fog.9 mph97%29.97 "Hg6 mi
11:53 PM
Fri, Apr 17
74 °FLight rain. Passing clouds.6 mph94%29.93 "Hg7 mi
10:53 PM74 °FLight rain. Passing clouds.7 mph91%29.90 "Hg10 mi
9:53 PM76 °FClear.No wind85%29.95 "Hg10 mi
8:53 PM76 °FClear.No wind85%29.91 "Hg10 mi
7:53 PM77 °FSunny.No wind82%29.90 "Hg10 mi
6:53 PM78 °FSunny.3 mph79%29.91 "Hg10 mi
5:53 PM80 °FPartly sunny.No wind69%29.90 "Hg10 mi
4:53 PM82 °FPassing clouds.3 mph65%29.90 "Hg10 mi
3:53 PM83 °FPartly sunny.5 mph63%29.90 "Hg10 mi
2:53 PM80 °FPassing clouds.5 mph67%29.94 "Hg10 mi
1:53 PM80 °FPartly sunny.5 mph67%29.96 "Hg9 mi
12:53 PM79 °FPartly sunny.3 mph69%29.99 "Hg10 mi
11:53 AM77 °FPassing clouds.No wind71%30.01 "Hg10 mi
Weather by CustomWeather, © 2015

See weather overviewHow to use our weather pages